Location: STAR School
(35.3054°N, 111.2976°W)
Time: 16:53:20
(UTC-07:00)

Transit 2A Rocket - Pass Details

Date: 02 June 2019
Orbit: 587 x 916 km, 66.7° (Epoch: 26 June)

Event Time Altitude Azimuth Distance (km) Brightness Sun altitude
Rises 22:46:28 0° 350° (N) 3,364 9.5 -28.0°
Reaches altitude 10° 22:50:30 10° 17° (NNE) 2,347 8.1 -28.4°
Maximum altitude 22:52:54 13° 44° (NE) 2,094 7.5 -28.6°
Enters shadow 22:54:28 12° 63° (ENE) 2,150 7.3 -28.7°
